Weather History for Tekamah, NE

Change the Weather History Date:

Friday, June 28, 2013

  Actual Average Record
Temperature  
Mean Temperature 78 °F -  
Max Temperature 87 °F 89 °F 101 °F (1980)
Min Temperature 69 °F 63 °F 47 °F (1968)
Cooling Degree Days 12    
Growing Degree Days 28 (Base 50)    
Moisture  
Dew Point 58 °F    
Average Humidity 54    
Maximum Humidity 84    
Minimum Humidity 34    
Precipitation  
Precipitation 0.00 in - - ()
Sea Level Pressure  
Sea Level Pressure 29.91 in    
Wind  
Wind Speed 13 mph (NW)    
Max Wind Speed 24 mph    
Max Gust Speed 33 mph    
Visibility 10 miles    
Events      
Averages and records for this station are not official NWS values.
T = Trace of Precipitation, MM = Missing Value Source: NWS Daily Summary

Daily Weather History Graph

Daily Weather History Graph

Search for Another Location

Airport:

Trip Planner

Search our weather history database for the weather conditions in past years. The results will help you decide how hot, cold, wet, or windy it might be!

Date:

Astronomy

Jun. 28, 2013 Rise Set
Actual Time 5:52 AM CDT 9:03 PM CDT
Civil Twilight 5:18 AM CDT 9:37 PM CDT
Nautical Twilight 4:34 AM CDT 10:21 PM CDT
Astronomical Twilight 3:41 AM CDT 11:14 PM CDT
Moon No Moon Rise 12:06 PM CDT (6/28)
Length of Visible Light 16h 19m
Length of Day
15h 11m
Waning Gibbous, 66% of the Moon is Illuminated
Jun 28
Waning Gibbous
Jun 29
Last Quarter
Jul 8
New
Jul 15
First Quarter
Jul 22
Full

Hourly Weather History & Observations

Time (CDT) Temp. Heat Index Dew Point Humidity Pressure Visibility Wind Dir Wind Speed Gust Speed Precip Events Conditions
12:54 AM 69.1 °F - 64.0 °F 84% 29.92 in 10.0 mi WSW 5.8 mph - N/A   Clear
1:54 AM 71.1 °F - 64.0 °F 78% 29.90 in 10.0 mi West 10.4 mph - N/A   Clear
2:54 AM 72.0 °F - 63.0 °F 73% 29.91 in 10.0 mi West 13.8 mph - N/A   Partly Cloudy
3:54 AM 73.9 °F - 61.0 °F 64% 29.92 in 10.0 mi NW 15.0 mph - N/A   Scattered Clouds
4:54 AM 71.1 °F - 62.1 °F 73% 29.91 in 10.0 mi NW 10.4 mph - N/A   Partly Cloudy
5:54 AM 69.1 °F - 61.0 °F 75% 29.92 in 10.0 mi NW 9.2 mph - N/A   Clear
6:54 AM 70.0 °F - 62.1 °F 76% 29.94 in 10.0 mi NW 9.2 mph - N/A   Clear
7:54 AM 73.9 °F - 61.0 °F 64% 29.95 in 10.0 mi NNW 11.5 mph - N/A   Clear
8:54 AM 77.0 °F - 62.1 °F 60% 29.96 in 10.0 mi NNW 11.5 mph - N/A   Clear
9:54 AM 79.0 °F - 61.0 °F 54% 29.96 in 10.0 mi NW 17.3 mph 20.7 mph N/A   Clear
10:54 AM 82.0 °F 82.4 °F 60.1 °F 47% 29.96 in 10.0 mi NW 18.4 mph 24.2 mph N/A   Clear
11:54 AM 82.9 °F 82.8 °F 59.0 °F 44% 29.95 in 10.0 mi NNW 17.3 mph 27.6 mph N/A   Clear
12:54 PM 84.0 °F 83.0 °F 55.9 °F 38% 29.94 in 10.0 mi NW 21.9 mph 29.9 mph N/A   Clear
1:54 PM 84.9 °F 83.3 °F 54.0 °F 34% 29.92 in 10.0 mi NNW 24.2 mph 33.4 mph N/A   Clear
2:54 PM 86.0 °F 84.7 °F 55.9 °F 36% 29.91 in 10.0 mi NW 19.6 mph 31.1 mph N/A   Scattered Clouds
3:54 PM 86.0 °F 84.7 °F 55.9 °F 36% 29.90 in 10.0 mi NNW 20.7 mph 33.4 mph N/A   Clear
4:54 PM 86.0 °F 84.7 °F 55.9 °F 36% 29.89 in 10.0 mi NNW 18.4 mph 31.1 mph N/A   Clear
5:54 PM 86.0 °F 84.7 °F 55.9 °F 36% 29.88 in 10.0 mi NNW 23.0 mph 33.4 mph N/A   Clear
6:54 PM 84.0 °F 82.6 °F 54.0 °F 35% 29.87 in 10.0 mi NNW 21.9 mph 28.8 mph N/A   Clear
7:54 PM 82.0 °F 81.2 °F 53.1 °F 37% 29.87 in 10.0 mi NNW 12.7 mph 21.9 mph N/A   Clear
8:54 PM 75.9 °F - 54.0 °F 46% 29.86 in 10.0 mi NW 10.4 mph - N/A   Clear
9:54 PM 73.9 °F - 54.0 °F 50% 29.87 in 10.0 mi NW 11.5 mph - N/A   Clear
10:54 PM 72.0 °F - 54.0 °F 53% 29.88 in 10.0 mi NW 8.1 mph - N/A   Clear
11:54 PM 71.1 °F - 54.0 °F 55% 29.87 in 10.0 mi NW 9.2 mph - N/A   Clear